Charter Quote
Worldwide +44-20-3874-8091 Call
Select Language Lang
SAFETY RELIABILITY EXPERIENCE

Nowra Airport (YSNW) - Jet Charter Services

AIRPORT INFORMATION
ICAOYSNW
IATANOA
LOCATIONNowra, Australia
FACILITY TYPEAIRPORT
Runway Length (ft) Width (ft) Surface Type Elevation (ft)
26/08 6870 148 ASP 399.73770
21/03 6713 148 ASP 399.73770

At Paramount Business Jets you can hire chartered private jets to and from Nowra Airport with as little as 4 hours of notice. All flights booked via Paramount Business Jets are operated by certified direct air carriers that meet and exceed the FAA part 135 and 121 protocol or a foreign equivalent safety authority. Furthermore, Paramount Business Jets subscribes to ARGUS for their third party safety checks of operators, aircraft, and crews prior each and every flight to and from Nowra Airport and worldwide.

  • Quote a trip using Nowra Airport or call us 24/7 - 365 days a year at +44-20-3874-8091.
Questions? Call +44-20-3874-8091

METAR Weather Data at Nowra Airport, YSNW, NOA

STATIONYSNW
OBSERVEDSun Mar 24, 11:00 UTC
NOWSun Mar 24, 11:28 UTC
AGE28 min ago
WINDN at 7 mph
VISIBILITY16 miles
METARYSNW 241100Z AUTO 35006KT 9999 // NCD 24/18 Q1008

Call us on +44-20-3874-8091 (24 Hours) to Hire a Private Jet or Get a Quick Quote.

Find Airports Near any Location

Processing
...